This demonstration page uses our WeatherBlox Daily Observations layout. Learn more.

Left ArrowRight Arrow

36.17497, -115.13722

Hourly Observations for January 2, 2017

Temp ( °F °C ) Dew Point ( °F °C ) Humidity (%) Winds ( mph kmh ) Pressure ( in mb ) Visibility ( mi km ) Precip ( " mm )
12:53 am 00:53 Clear 50 10 28 -2.2 43 43 S 15 24 29.78 1008 10 16 N/A
1:53 am 01:53 Clear 50 10 28 -2.2 43 43 S 20 31 29.78 1008 10 16 N/A
2:53 am 02:53 Clear 50 10 26 -3.3 39 39 S 15 24 29.80 1009 10 16 N/A
3:53 am 03:53 Clear 50 10 27 -2.8 41 41 S 18 30 29.81 1010 10 16 N/A
4:53 am 04:53 Clear 49 9.4 27 -2.8 43 43 SW 17 28 29.81 1009 10 16 N/A
5:53 am 05:53 Clear 48 8.9 30 -1.1 50 50 undefined N/A 29.84 1011 10 16 N/A
6:53 am 06:53 Sunny 49 9.4 29 -1.7 46 46 SSE 20 31 29.87 1012 10 16 N/A
7:53 am 07:53 Sunny 49 9.4 31 -0.6 50 50 SSE 20 31 29.89 1012 10 16 N/A
8:53 am 08:53 Sunny 50 10 29 -1.7 44 44 SE 15 24 29.91 1013 10 16 N/A
9:53 am 09:53 Sunny 51 10.6 30 -1.1 44 44 SE 20 31 29.92 1013 10 16 N/A
10:53 am 10:53 Sunny 53 11.7 29 -1.7 40 40 S 14 22 29.91 1013 10 16 N/A
11:53 am 11:53 Sunny 55 12.8 26 -3.3 33 33 SW 21 33 29.89 1012 10 16 N/A
12:53 pm 12:53 Sunny 56 13.3 25 -3.9 30 30 SSW 20 31 29.89 1012 10 16 N/A
1:53 pm 13:53 Sunny 57 13.9 26 -3.3 30 30 SSW 17 28 29.89 1012 10 16 N/A
2:53 pm 14:53 Sunny 57 13.9 27 -2.8 32 32 SSW 20 31 29.88 1012 10 16 N/A
3:53 pm 15:53 Sunny 56 13.3 28 -2.2 34 34 S 22 35 29.91 1013 10 16 N/A
4:53 pm 16:53 Clear 55 12.8 28 -2.2 35 35 SSW 10 17 29.95 1014 10 16 N/A
5:53 pm 17:53 Clear 54 12.2 29 -1.7 38 38 S 10 17 29.98 1015 10 16 N/A
6:53 pm 18:53 Clear 52 11.1 29 -1.7 41 41 SSW 10 17 29.99 1016 10 16 N/A
7:53 pm 19:53 Clear 52 11.1 31 -0.6 45 45 SSW 17 28 30.02 1017 10 16 N/A
8:53 pm 20:53 Clear 50 10 30 -1 47 47 S 16 26 30.00 1016 10 16 N/A
9:53 pm 21:53 Clear 50 10 32 undefined 50 50 S 12 19 30.04 1017 10 16 N/A
10:53 pm 22:53 Clear 48 8.9 32 undefined 54 54 S 13 20 30.05 1018 10 16 N/A
11:53 pm 23:53 Clear 46 7.8 33 0.6 61 61 SSE 12 19 30.06 1018 10 16 N/A

Powered by AerisWeather